Location: B?jaj?g
(11.7167°N, 92.6667°E)
Time: 23:28:58
(UTC+00:00)

Cosmos 1802 Rocket - Pass Details

Date: 18 September 2020
Orbit: 955 x 1011 km, 82.9° (Epoch: 30 October)

Event Time Altitude Azimuth Distance (km) Brightness Sun altitude
Rises 22:56:45 0° 0° (N) 3,653 7.1 -11.1°
Reaches altitude 10° 22:59:15 10° 3° (N) 2,713 6.4 -10.5°
Maximum altitude 23:05:26 70° 86° (E) 1,039 4.4 -8.9°
Drops below altitude 10° 23:11:43 10° 170° (S) 2,752 6.5 -7.4°
Sets 23:14:16 0° 172° (S) 3,709 7.1 -6.8°
